QAK618 MMAA-MMMY

Flight info

Callsign QAK618
Flight time 1h 29m
Altitude 38000
Route ALNUS1A ALNUS UT117 ESPOS/N0464F370 DCT AXIRI/N0460F380 UT138 CVM UJ15E RETOS RETOS1A
Aircraft B752/M-SDE3FGHIM3RWXY/LB1

Departure

Time 2026-04-22 16:22
Airport General Juan N. Álvarez International Airport (MMAA)

Arrival

Time 2026-04-22 17:52
Airport Monterrey International Airport (MMMY)
Time Latitude Longitude Altitude Speed Heading
2026-04-22 15:33 16.76152 -99.75622 30 ft 0 kts 18°
2026-04-22 15:44 16.76141 -99.75626 30 ft 2 kts 18°
2026-04-22 15:45 16.76127 -99.75630 30 ft 2 kts 18°
2026-04-22 15:45 16.76112 -99.75635 29 ft 2 kts 18°
2026-04-22 15:45 16.76098 -99.75641 29 ft 2 kts 31°
2026-04-22 15:45 16.76087 -99.75651 29 ft 2 kts 50°
2026-04-22 15:46 16.76079 -99.75665 29 ft 2 kts 69°
2026-04-22 15:46 16.76075 -99.75680 29 ft 2 kts 88°
2026-04-22 15:46 16.76077 -99.75693 29 ft 0 kts 105°
2026-04-22 15:46 16.76079 -99.75700 29 ft 0 kts 108°
2026-04-22 15:56 16.75995 -99.75632 29 ft 0 kts 198°
2026-04-22 16:08 16.76006 -99.75628 29 ft 2 kts 198°
2026-04-22 16:09 16.76017 -99.75625 29 ft 0 kts 198°
2026-04-22 16:09 16.76030 -99.75622 29 ft 2 kts 176°
2026-04-22 16:09 16.76045 -99.75626 29 ft 2 kts 153°
2026-04-22 16:09 16.76056 -99.75635 29 ft 2 kts 128°
2026-04-22 16:10 16.76062 -99.75645 29 ft 0 kts 109°
2026-04-22 16:10 16.76064 -99.75652 29 ft 0 kts 107°
2026-04-22 16:12 16.76064 -99.75651 29 ft 1 kts 107°
2026-04-22 16:12 16.76057 -99.75627 29 ft 5 kts 107°
2026-04-22 16:13 16.76044 -99.75587 29 ft 6 kts 109°
2026-04-22 16:13 16.76029 -99.75539 29 ft 7 kts 108°
2026-04-22 16:13 16.76012 -99.75489 29 ft 7 kts 109°
2026-04-22 16:13 16.75995 -99.75436 29 ft 7 kts 109°
2026-04-22 16:14 16.75976 -99.75382 29 ft 7 kts 117°
2026-04-22 16:14 16.75938 -99.75356 29 ft 6 kts 156°
2026-04-22 16:14 16.75899 -99.75330 29 ft 6 kts 126°
2026-04-22 16:14 16.75878 -99.75285 29 ft 7 kts 109°
2026-04-22 16:15 16.75862 -99.75236 29 ft 7 kts 108°
2026-04-22 16:15 16.75845 -99.75182 28 ft 7 kts 108°
2026-04-22 16:15 16.75829 -99.75128 28 ft 7 kts 107°
2026-04-22 16:15 16.75813 -99.75075 28 ft 7 kts 107°
2026-04-22 16:16 16.75797 -99.75021 28 ft 7 kts 107°
2026-04-22 16:16 16.75781 -99.74969 28 ft 7 kts 107°
2026-04-22 16:16 16.75765 -99.74916 28 ft 7 kts 107°
2026-04-22 16:16 16.75748 -99.74860 28 ft 11 kts 108°
2026-04-22 16:17 16.75739 -99.74833 28 ft 14 kts 109°
2026-04-22 16:17 16.75723 -99.74790 28 ft 11 kts 107°
2026-04-22 16:17 16.75718 -99.74773 28 ft 10 kts 107°
2026-04-22 16:18 16.75703 -99.74727 28 ft 6 kts 109°
2026-04-22 16:18 16.75696 -99.74705 28 ft 6 kts 107°
2026-04-22 16:18 16.75692 -99.74691 28 ft 8 kts 107°
2026-04-22 16:19 16.75666 -99.74602 28 ft 19 kts 107°
2026-04-22 16:19 16.75615 -99.74440 28 ft 24 kts 108°
2026-04-22 16:19 16.75561 -99.74274 28 ft 23 kts 107°
2026-04-22 16:19 16.75511 -99.74108 27 ft 23 kts 108°
2026-04-22 16:20 16.75460 -99.73949 27 ft 22 kts 108°
2026-04-22 16:20 16.75411 -99.73796 27 ft 22 kts 108°
2026-04-22 16:20 16.75363 -99.73645 27 ft 21 kts 108°
2026-04-22 16:20 16.75318 -99.73500 26 ft 20 kts 108°
2026-04-22 16:21 16.75280 -99.73378 26 ft 13 kts 109°
2026-04-22 16:21 16.75212 -99.73332 26 ft 12 kts 186°
2026-04-22 16:21 16.75113 -99.73365 26 ft 18 kts 218°
2026-04-22 16:21 16.75123 -99.73517 26 ft 36 kts 288°
2026-04-22 16:22 16.75585 -99.74977 36 ft 174 kts 289°
2026-04-22 16:22 16.75941 -99.76253 491 ft 188 kts 281°
2026-04-22 16:22 16.76186 -99.77612 1144 ft 197 kts 289°
2026-04-22 16:23 16.77236 -99.80362 2869 ft 208 kts 289°
2026-04-22 16:23 16.77712 -99.81767 3768 ft 211 kts 289°
2026-04-22 16:23 16.78177 -99.83209 4705 ft 212 kts 288°
2026-04-22 16:24 16.78637 -99.84678 5573 ft 217 kts 288°
2026-04-22 16:24 16.79867 -99.87514 7185 ft 225 kts 320°
2026-04-22 16:24 16.81251 -99.88226 8055 ft 225 kts 344°
2026-04-22 16:25 16.82769 -99.88671 8864 ft 232 kts 344°
2026-04-22 16:25 16.85876 -99.89586 10545 ft 237 kts 346°
2026-04-22 16:25 16.87480 -99.90043 11339 ft 239 kts 346°
2026-04-22 16:26 16.89083 -99.90495 12107 ft 241 kts 346°
2026-04-22 16:26 16.90699 -99.90949 12888 ft 244 kts 347°
2026-04-22 16:26 16.92323 -99.91402 13640 ft 246 kts 347°
2026-04-22 16:26 16.93995 -99.91869 14437 ft 249 kts 347°
2026-04-22 16:27 16.95696 -99.92010 15117 ft 250 kts 14°
2026-04-22 16:27 16.97325 -99.91319 15561 ft 264 kts 31°
2026-04-22 16:27 16.98967 -99.90314 15882 ft 282 kts 30°
2026-04-22 16:27 17.00727 -99.89241 16171 ft 302 kts 31°
2026-04-22 16:28 17.02597 -99.88083 16454 ft 323 kts 31°
2026-04-22 16:28 17.04594 -99.86835 16715 ft 343 kts 31°
2026-04-22 16:28 17.06714 -99.85506 16931 ft 364 kts 31°
2026-04-22 16:28 17.08952 -99.84100 17068 ft 383 kts 31°
2026-04-22 16:29 17.11290 -99.82629 17166 ft 402 kts 31°
2026-04-22 16:29 17.13714 -99.81104 17673 ft 407 kts 31°
2026-04-22 16:29 17.16167 -99.79558 18206 ft 411 kts 31°
2026-04-22 16:29 17.18659 -99.78094 18773 ft 413 kts 25°
2026-04-22 16:30 17.20425 -99.77361 19138 ft 414 kts 18°
2026-04-22 16:30 17.24229 -99.76582 19876 ft 418 kts
2026-04-22 16:30 17.27121 -99.76555 20425 ft 420 kts 359°
2026-04-22 16:30 17.30076 -99.76592 20996 ft 422 kts 359°
2026-04-22 16:31 17.33022 -99.76637 21495 ft 425 kts 359°
2026-04-22 16:31 17.35995 -99.76691 21977 ft 428 kts 359°
2026-04-22 16:31 17.39006 -99.76749 22506 ft 430 kts 359°
2026-04-22 16:31 17.41990 -99.76809 22913 ft 434 kts 358°
2026-04-22 16:32 17.45055 -99.76872 23394 ft 437 kts 358°
2026-04-22 16:32 17.48095 -99.76936 23927 ft 440 kts 358°
2026-04-22 16:32 17.51162 -99.77000 24398 ft 444 kts 358°
2026-04-22 16:32 17.54288 -99.77067 24882 ft 447 kts 358°
2026-04-22 16:33 17.57403 -99.77133 25297 ft 452 kts 358°
2026-04-22 16:33 17.60568 -99.77201 25803 ft 454 kts 358°
2026-04-22 16:33 17.63726 -99.77270 26241 ft 457 kts 358°
2026-04-22 16:33 17.66944 -99.77339 26722 ft 459 kts 357°
2026-04-22 16:34 17.70132 -99.77409 27122 ft 464 kts 357°
2026-04-22 16:34 17.73409 -99.77481 27532 ft 467 kts 357°
2026-04-22 16:34 17.76658 -99.77552 27972 ft 470 kts 357°
2026-04-22 16:34 17.79913 -99.77670 28439 ft 470 kts 355°
2026-04-22 16:35 17.83207 -99.77853 28755 ft 475 kts 355°
2026-04-22 16:35 17.86546 -99.78030 29357 ft 473 kts 355°
2026-04-22 16:35 17.89823 -99.78207 29777 ft 475 kts 355°
2026-04-22 16:35 17.93148 -99.78385 30279 ft 475 kts 355°
2026-04-22 16:36 17.96489 -99.78565 30759 ft 476 kts 355°
2026-04-22 16:36 17.99780 -99.78741 31293 ft 473 kts 355°
2026-04-22 16:36 18.03090 -99.78918 31624 ft 475 kts 355°
2026-04-22 16:36 18.06393 -99.79094 32042 ft 473 kts 354°
2026-04-22 16:37 18.09716 -99.79273 32335 ft 475 kts 354°
2026-04-22 16:37 18.13026 -99.79450 32613 ft 477 kts 354°
2026-04-22 16:37 18.16387 -99.79630 32963 ft 476 kts 354°
2026-04-22 16:37 18.19695 -99.79806 33325 ft 476 kts 354°
2026-04-22 16:38 18.23013 -99.79984 33720 ft 475 kts 354°
2026-04-22 16:38 18.26316 -99.80161 34152 ft 474 kts 354°
2026-04-22 16:38 18.29638 -99.80340 34528 ft 473 kts 354°
2026-04-22 16:38 18.32913 -99.80516 34869 ft 473 kts 354°
2026-04-22 16:39 18.36209 -99.80692 35257 ft 471 kts 353°
2026-04-22 16:39 18.39494 -99.80868 35620 ft 470 kts 353°
2026-04-22 16:39 18.42806 -99.81046 35935 ft 470 kts 353°
2026-04-22 16:39 18.46066 -99.81222 36217 ft 469 kts 353°
2026-04-22 16:40 18.49379 -99.81400 36509 ft 469 kts 353°
2026-04-22 16:40 18.52659 -99.81577 36817 ft 468 kts 353°
2026-04-22 16:40 18.59172 -99.81928 37308 ft 468 kts 353°
2026-04-22 16:41 18.62459 -99.82105 37528 ft 468 kts 353°
2026-04-22 16:41 18.65688 -99.82279 37743 ft 469 kts 352°
2026-04-22 16:41 18.68972 -99.82434 37913 ft 471 kts 355°
2026-04-22 16:41 18.72293 -99.82201 38146 ft 475 kts
2026-04-22 16:42 18.75509 -99.81430 38284 ft 482 kts 14°
2026-04-22 16:42 18.78685 -99.80171 38430 ft 485 kts 18°
2026-04-22 16:42 18.81808 -99.78834 38427 ft 485 kts 18°
2026-04-22 16:43 18.88044 -99.76144 38456 ft 481 kts 18°
2026-04-22 16:43 18.94279 -99.73433 38482 ft 482 kts 18°
2026-04-22 16:44 19.00474 -99.70726 38509 ft 482 kts 18°
2026-04-22 16:44 19.06705 -99.68000 38521 ft 484 kts 18°
2026-04-22 16:45 19.12951 -99.65263 38515 ft 484 kts 18°
2026-04-22 16:45 19.19201 -99.62522 38512 ft 485 kts 18°
2026-04-22 16:46 19.25419 -99.59792 38514 ft 484 kts 18°
2026-04-22 16:46 19.31639 -99.57059 38505 ft 485 kts 18°
2026-04-22 16:47 19.37859 -99.54324 38514 ft 484 kts 18°
2026-04-22 16:47 19.44115 -99.51572 38542 ft 486 kts 17°
2026-04-22 16:48 19.50394 -99.48807 38563 ft 489 kts 18°
2026-04-22 16:48 19.56642 -99.46052 38568 ft 488 kts 18°
2026-04-22 16:49 19.62967 -99.43262 38566 ft 488 kts 18°
2026-04-22 16:49 19.69259 -99.40484 38566 ft 488 kts 18°
2026-04-22 16:50 19.75535 -99.37710 38548 ft 488 kts 18°
2026-04-22 16:50 19.81826 -99.34927 38538 ft 488 kts 18°
2026-04-22 16:51 19.88155 -99.32126 38524 ft 490 kts 18°
2026-04-22 16:51 19.94451 -99.29335 38527 ft 490 kts 18°
2026-04-22 16:52 20.00755 -99.26540 38521 ft 490 kts 18°
2026-04-22 16:52 20.07063 -99.23741 38518 ft 492 kts 18°
2026-04-22 16:53 20.13390 -99.20930 38506 ft 492 kts 17°
2026-04-22 16:53 20.19721 -99.18115 38492 ft 491 kts 17°
2026-04-22 16:54 20.26055 -99.15296 38485 ft 490 kts 18°
2026-04-22 16:54 20.32336 -99.12498 38457 ft 491 kts 17°
2026-04-22 16:55 20.38664 -99.09679 38419 ft 492 kts 17°
2026-04-22 16:55 20.45169 -99.07500 38406 ft 480 kts
2026-04-22 16:56 20.51780 -99.06966 38394 ft 475 kts 357°
2026-04-22 16:56 20.58420 -99.06580 38364 ft 475 kts 356°
2026-04-22 16:57 20.65044 -99.06226 38345 ft 474 kts 356°
2026-04-22 16:57 20.71669 -99.05883 38316 ft 474 kts 356°
2026-04-22 16:58 20.77179 -99.05600 38305 ft 472 kts 356°
2026-04-22 16:58 20.84821 -99.05211 38257 ft 472 kts 356°
2026-04-22 16:59 20.91401 -99.04876 38230 ft 473 kts 356°
2026-04-22 16:59 20.98005 -99.04539 38213 ft 475 kts 356°
2026-04-22 17:00 21.04646 -99.04199 38186 ft 473 kts 356°
2026-04-22 17:00 21.14534 -99.03694 38153 ft 471 kts 356°
2026-04-22 17:01 21.21109 -99.03359 38155 ft 471 kts 356°
2026-04-22 17:01 21.27657 -99.03023 38142 ft 470 kts 356°
2026-04-22 17:02 21.34244 -99.02686 38117 ft 472 kts 356°
2026-04-22 17:02 21.40833 -99.02348 38085 ft 472 kts 356°
2026-04-22 17:03 21.47399 -99.02010 38061 ft 470 kts 356°
2026-04-22 17:03 21.53889 -99.01675 38037 ft 466 kts 356°
2026-04-22 17:04 21.60461 -99.01340 38027 ft 471 kts 356°
2026-04-22 17:04 21.66982 -99.01002 38017 ft 466 kts 356°
2026-04-22 17:05 21.73443 -99.00671 38008 ft 467 kts 356°
2026-04-22 17:05 21.79978 -99.00334 38004 ft 469 kts 356°
2026-04-22 17:06 21.86493 -98.99997 38008 ft 466 kts 356°
2026-04-22 17:06 21.92957 -98.99663 38007 ft 467 kts 356°
2026-04-22 17:07 21.99443 -98.99327 38004 ft 465 kts 356°
2026-04-22 17:07 22.05930 -98.98992 38008 ft 466 kts 356°
2026-04-22 17:08 22.12432 -98.98655 38003 ft 465 kts 356°
2026-04-22 17:08 22.18916 -98.98319 38002 ft 466 kts 356°
2026-04-22 17:09 22.25417 -98.97982 38011 ft 467 kts 356°
2026-04-22 17:09 22.31903 -98.97645 38011 ft 463 kts 356°
2026-04-22 17:10 22.38365 -98.97309 38021 ft 464 kts 356°
2026-04-22 17:10 22.44852 -98.96971 38027 ft 463 kts 356°
2026-04-22 17:11 22.51321 -98.96635 38027 ft 464 kts 356°
2026-04-22 17:11 22.57827 -98.96295 38023 ft 464 kts 356°
2026-04-22 17:12 22.64270 -98.95959 38017 ft 462 kts 356°
2026-04-22 17:12 22.70723 -98.95622 38002 ft 466 kts 356°
2026-04-22 17:13 22.77204 -98.95282 37979 ft 461 kts 356°
2026-04-22 17:13 22.83604 -98.94947 37983 ft 461 kts 356°
2026-04-22 17:14 22.90000 -98.94613 37979 ft 461 kts 356°
2026-04-22 17:14 22.96466 -98.94274 37986 ft 463 kts 356°
2026-04-22 17:15 23.02912 -98.93935 37984 ft 461 kts 356°
2026-04-22 17:15 23.09293 -98.93600 37993 ft 460 kts 356°
2026-04-22 17:16 23.15733 -98.93263 38005 ft 460 kts 356°
2026-04-22 17:16 23.22137 -98.92924 38010 ft 459 kts 356°
2026-04-22 17:17 23.28541 -98.92588 38014 ft 460 kts 356°
2026-04-22 17:17 23.34890 -98.92578 38025 ft 448 kts 348°
2026-04-22 17:18 23.41123 -98.93185 38020 ft 450 kts 348°
2026-04-22 17:18 23.47367 -98.93765 38024 ft 451 kts 348°
2026-04-22 17:19 23.59900 -98.94920 38027 ft 449 kts 349°
2026-04-22 17:20 23.72369 -98.96106 38023 ft 446 kts 347°
2026-04-22 17:21 23.81612 -98.97201 38012 ft 444 kts 347°
2026-04-22 17:22 23.87801 -98.97934 37416 ft 441 kts 348°
2026-04-22 17:22 23.90799 -98.98279 37545 ft 422 kts 347°
2026-04-22 17:23 23.99600 -98.99328 37546 ft 430 kts 347°
2026-04-22 17:23 24.08533 -99.00384 37546 ft 427 kts 347°
2026-04-22 17:24 24.14429 -99.01084 37542 ft 428 kts 347°
2026-04-22 17:24 24.20320 -99.01976 37241 ft 424 kts 339°
2026-04-22 17:25 24.23112 -99.02979 36912 ft 420 kts 334°
2026-04-22 17:25 24.25834 -99.04059 36565 ft 417 kts 335°
2026-04-22 17:25 24.28595 -99.05151 36218 ft 415 kts 334°
2026-04-22 17:25 24.31302 -99.06231 35872 ft 413 kts 334°
2026-04-22 17:26 24.33966 -99.07297 35533 ft 413 kts 334°
2026-04-22 17:26 24.36699 -99.08396 35172 ft 413 kts 334°
2026-04-22 17:26 24.39406 -99.09486 34817 ft 414 kts 335°
2026-04-22 17:26 24.42109 -99.10575 34464 ft 415 kts 335°
2026-04-22 17:27 24.44806 -99.11663 34099 ft 415 kts 335°
2026-04-22 17:27 24.47552 -99.12772 33728 ft 416 kts 335°
2026-04-22 17:27 24.50267 -99.13868 33349 ft 416 kts 335°
2026-04-22 17:27 24.52965 -99.14959 32963 ft 417 kts 335°
2026-04-22 17:28 24.55701 -99.16066 32576 ft 421 kts 335°
2026-04-22 17:28 24.58498 -99.17198 32170 ft 425 kts 335°
2026-04-22 17:28 24.61299 -99.18332 31767 ft 428 kts 335°
2026-04-22 17:28 24.64075 -99.19456 31367 ft 429 kts 335°
2026-04-22 17:29 24.66896 -99.20599 30951 ft 431 kts 335°
2026-04-22 17:29 24.69704 -99.21738 30539 ft 433 kts 335°
2026-04-22 17:29 24.72543 -99.22889 30131 ft 436 kts 335°
2026-04-22 17:29 24.75399 -99.24048 29713 ft 439 kts 335°
2026-04-22 17:30 24.78272 -99.25214 29300 ft 441 kts 336°
2026-04-22 17:30 24.81178 -99.26394 28878 ft 439 kts 335°
2026-04-22 17:30 24.84027 -99.27550 28464 ft 435 kts 335°
2026-04-22 17:30 24.86837 -99.28693 28056 ft 432 kts 335°
2026-04-22 17:31 24.89677 -99.29848 27648 ft 430 kts 335°
2026-04-22 17:31 24.92475 -99.30988 27249 ft 428 kts 335°
2026-04-22 17:31 24.95272 -99.32127 26857 ft 426 kts 336°
2026-04-22 17:31 24.98044 -99.33257 26461 ft 423 kts 336°
2026-04-22 17:32 25.00813 -99.34386 26076 ft 422 kts 336°
2026-04-22 17:32 25.03536 -99.35497 25700 ft 420 kts 336°
2026-04-22 17:32 25.06295 -99.36623 25296 ft 419 kts 336°
2026-04-22 17:32 25.09032 -99.37740 24842 ft 418 kts 336°
2026-04-22 17:33 25.10830 -99.38474 24520 ft 416 kts 336°
2026-04-22 17:33 25.14464 -99.39959 23839 ft 412 kts 336°
2026-04-22 17:33 25.17128 -99.41048 23327 ft 410 kts 336°
2026-04-22 17:33 25.19760 -99.42185 22791 ft 405 kts 331°
2026-04-22 17:34 25.22171 -99.43714 22282 ft 398 kts 323°
2026-04-22 17:34 25.24445 -99.45426 21785 ft 396 kts 323°
2026-04-22 17:34 25.26723 -99.47144 21283 ft 393 kts 323°
2026-04-22 17:34 25.28963 -99.48848 20791 ft 389 kts 323°
2026-04-22 17:35 25.31189 -99.50548 20285 ft 387 kts 323°
2026-04-22 17:35 25.33375 -99.52223 19812 ft 384 kts 323°
2026-04-22 17:35 25.35557 -99.53898 19330 ft 382 kts 323°
2026-04-22 17:35 25.37748 -99.55582 18838 ft 378 kts 323°
2026-04-22 17:36 25.39892 -99.57232 18356 ft 376 kts 323°
2026-04-22 17:36 25.42022 -99.58871 17888 ft 374 kts 323°
2026-04-22 17:36 25.44173 -99.60529 17406 ft 372 kts 323°
2026-04-22 17:36 25.46293 -99.62163 16917 ft 371 kts 323°
2026-04-22 17:37 25.48403 -99.63791 16450 ft 370 kts 323°
2026-04-22 17:37 25.50454 -99.65372 16312 ft 352 kts 323°
2026-04-22 17:37 25.52450 -99.66913 16012 ft 348 kts 323°
2026-04-22 17:37 25.54493 -99.68493 15581 ft 370 kts 323°
2026-04-22 17:38 25.56621 -99.70136 15017 ft 371 kts 323°
2026-04-22 17:38 25.58693 -99.71738 14446 ft 364 kts 323°
2026-04-22 17:38 25.60763 -99.73338 14146 ft 349 kts 324°
2026-04-22 17:38 25.62691 -99.74828 13747 ft 329 kts 324°
2026-04-22 17:39 25.64510 -99.76236 13419 ft 311 kts 324°
2026-04-22 17:39 25.66242 -99.77577 13228 ft 295 kts 324°
2026-04-22 17:39 25.69477 -99.80083 12915 ft 273 kts 324°
2026-04-22 17:40 25.71012 -99.81273 12713 ft 269 kts 324°
2026-04-22 17:40 25.72602 -99.82507 12503 ft 286 kts 324°
2026-04-22 17:40 25.74244 -99.83780 12261 ft 291 kts 324°
2026-04-22 17:40 25.75909 -99.85071 12018 ft 288 kts 324°
2026-04-22 17:41 25.77463 -99.86424 11721 ft 287 kts 311°
2026-04-22 17:41 25.78474 -99.88301 11433 ft 287 kts 292°
2026-04-22 17:41 25.79261 -99.90318 11057 ft 286 kts 296°
2026-04-22 17:41 25.80169 -99.92293 10629 ft 283 kts 298°
2026-04-22 17:42 25.81093 -99.94178 10251 ft 279 kts 300°
2026-04-22 17:42 25.82031 -99.96020 10170 ft 264 kts 301°
2026-04-22 17:42 25.82937 -99.97763 9774 ft 259 kts 301°
2026-04-22 17:42 25.83839 -99.99474 9284 ft 257 kts 301°
2026-04-22 17:43 25.84747 -100.01184 8854 ft 256 kts 302°
2026-04-22 17:43 25.85647 -100.02870 8581 ft 253 kts 302°
2026-04-22 17:43 25.86548 -100.04557 8229 ft 254 kts 301°
2026-04-22 17:43 25.87437 -100.06220 7904 ft 253 kts 301°
2026-04-22 17:44 25.88333 -100.07893 7608 ft 252 kts 301°
2026-04-22 17:44 25.89208 -100.09530 7426 ft 241 kts 301°
2026-04-22 17:44 25.90069 -100.11137 6934 ft 244 kts 301°
2026-04-22 17:44 25.90931 -100.12748 6566 ft 238 kts 301°
2026-04-22 17:45 25.91757 -100.14294 6300 ft 229 kts 301°
2026-04-22 17:45 25.92543 -100.15767 6146 ft 212 kts 301°
2026-04-22 17:45 25.93265 -100.17117 5951 ft 205 kts 300°
2026-04-22 17:45 25.94037 -100.18560 5816 ft 225 kts 299°
2026-04-22 17:46 25.94598 -100.20188 5646 ft 228 kts 272°
2026-04-22 17:46 25.94305 -100.21865 5513 ft 225 kts 238°
2026-04-22 17:46 25.93213 -100.23070 5406 ft 221 kts 202°
2026-04-22 17:46 25.91708 -100.23453 5071 ft 225 kts 180°
2026-04-22 17:47 25.90160 -100.23511 4579 ft 221 kts 181°
2026-04-22 17:47 25.88632 -100.23661 4113 ft 218 kts 189°
2026-04-22 17:47 25.87210 -100.24080 3840 ft 208 kts 197°
2026-04-22 17:47 25.85833 -100.24458 3360 ft 197 kts 173°
2026-04-22 17:48 25.85007 -100.24210 3250 ft 173 kts 143°
2026-04-22 17:48 25.84189 -100.22861 3307 ft 164 kts 112°
2026-04-22 17:48 25.83706 -100.21750 3243 ft 151 kts 117°
2026-04-22 17:48 25.83251 -100.20806 3235 ft 125 kts 117°
2026-04-22 17:49 25.82827 -100.19953 3198 ft 134 kts 118°
2026-04-22 17:49 25.82355 -100.19029 2953 ft 137 kts 118°
2026-04-22 17:49 25.81885 -100.18134 2692 ft 131 kts 119°
2026-04-22 17:49 25.81429 -100.17277 2469 ft 128 kts 119°
2026-04-22 17:50 25.80972 -100.16425 2283 ft 129 kts 120°
2026-04-22 17:50 25.80505 -100.15569 2097 ft 130 kts 121°
2026-04-22 17:50 25.80029 -100.14710 1917 ft 130 kts 120°
2026-04-22 17:50 25.79573 -100.13842 1733 ft 130 kts 119°
2026-04-22 17:51 25.79113 -100.12987 1552 ft 129 kts 120°
2026-04-22 17:51 25.78643 -100.12141 1411 ft 128 kts 121°
2026-04-22 17:51 25.78173 -100.11299 1285 ft 127 kts 121°
2026-04-22 17:51 25.77763 -100.10534 1269 ft 98 kts 121°
2026-04-22 17:52 25.77484 -100.10023 1260 ft 57 kts 121°
2026-04-22 17:52 25.77339 -100.09756 1255 ft 30 kts 121°
2026-04-22 17:52 25.77227 -100.09715 1254 ft 15 kts 207°
2026-04-22 17:52 25.77161 -100.09761 1254 ft 8 kts 218°
2026-04-22 17:53 25.77151 -100.09814 1255 ft 7 kts 289°
2026-04-22 17:53 25.77172 -100.09861 1256 ft 6 kts 298°
2026-04-22 17:53 25.77209 -100.09933 1257 ft 14 kts 301°
2026-04-22 17:53 25.77278 -100.10059 1259 ft 23 kts 302°
2026-04-22 17:54 25.77378 -100.10234 1262 ft 28 kts 301°
2026-04-22 17:54 25.77480 -100.10416 1266 ft 26 kts 302°
2026-04-22 17:54 25.77574 -100.10587 1269 ft 25 kts 301°
2026-04-22 17:54 25.77663 -100.10748 1271 ft 23 kts 302°
2026-04-22 17:55 25.77745 -100.10899 1274 ft 22 kts 301°
2026-04-22 17:55 25.77817 -100.11032 1277 ft 15 kts 301°
2026-04-22 17:55 25.77817 -100.11119 1278 ft 11 kts 220°
2026-04-22 17:55 25.77750 -100.11158 1278 ft 10 kts 195°
2026-04-22 17:56 25.77698 -100.11205 1279 ft 9 kts 251°
2026-04-22 17:56 25.77681 -100.11270 1280 ft 8 kts 269°
2026-04-22 17:56 25.77697 -100.11327 1281 ft 7 kts 295°
2026-04-22 17:56 25.77723 -100.11346 1282 ft 4 kts 18°
2026-04-22 17:57 25.77755 -100.11333 1282 ft 3 kts 28°
2026-04-22 17:57 25.77765 -100.11327 1282 ft 0 kts 30°